Showing default

NOAA 20, 43013

Orbit data source: Space-Track

NOAA 20, 43013 is an American payload satellite in SSO that was launched on Sat, 18 Nov 2017 UTC via a DELTA 7920-10C launch vehicle from the Air Force Western Test Range (AFWTR). Payload-class satellites include a variety of spacecraft equipped with specific instruments for various scientific and technological missions. These include communications satellites like Starlink; space stations such as the ISS; scientific satellites like the Hubble; Earth observation satellites from companies like Planet Labs, Umbra, and HawkEye 360; GPS; miniature CubeSats for education and research; and military/defense satellites.

Loading next visibility...
Identifier
43013, 2017-073A
Orbit
SSO
Country
Flag of USUS
Related business
Manufacturer
Ball
Mission
Operational Civil Weather
Bus & Motor
BCP-2000, AOCS
Mass
2,220 kg wet, ~1,400 kg dry
Launch date (UTC)
2017-11-18 (8 years ago)
Launch vehicle
DELTA 7920-10C
Launch site
Air Force Western Test Range (AFWTR)
Object type
Payload
Rocket body
Debris
Shape & HBR
Box + 1 Pan, 5.4 m
Radar Cross Section
8.434 m², Large (>1 m²)

Expand to show TLE details & history
Last TLE update: 13 hours ago

TLE from 13 hours ago
0 NOAA 20
1 43013U 17073A   25347.27234257  .00000157  00000-0  95421-4 0  9990
2 43013  98.7599 283.5633 0002156  86.4672 273.6750 14.19525992418096
Epoch: 2025-12-13T06:32Z
TLE epoch observation values (Epoch: 2025-12-13T06:32:10.398Z)
Latitude
-0.00006°
Longitude
103.31799°
Altitude
829.769 km
Speed
7.438 km/s
True Right ascension
18h 54m 15s
True Declination
0° 00' 00"
Sunlit
Object was in daylight at epoch
Visualization orbit readout
Latitude
Unknown
Longitude
Unknown
Altitude
Unknown
Speed
Unknown
Apparent Right ascension
Unknown
Apparent Declination
Unknown
Sunlit
N/A
Visualization observer readout
Local Sidereal Time
18:28:56
Azimuth
Unknown
Elevation
Unknown
Doppler factor
Unknown
Orbital elements
Apogee altitude
825.671 km
Perigee altitude
822.565 km
Semi-major axis
7,202.255 km
Eccentricity
0.00022
Inclination
98.7599°
RAAN
283.5633°
Arg. of periapsis
86.4672°
True anomaly
273.65034°
Mean anomaly
273.675°
Eccentric anomaly
273.66267°
Mean motion
3.55092 °/min
Orbital period
101.38 mins
BSTAR
0.000095421
Loading maneuver chart data...
Computing Atmospheric mass density...
Loading historical data...
Loading historical data...
Loading historical data...
Loading historical data...
Loading historical data...
Loading historical data...
Loading historical data...

Documentation

Showing up to 5 results
|